Tracking 17155 objects as of 28-July-2015
HD Live streaming from Space Station

SL-12 R/B(AUX MOTOR)

Track SL-12 R/B(AUX MOTOR) now!
SL-12 R/B(AUX MOTOR) is classified as:


NORAD ID: 25053
Int'l Code: 1997-070E
Perigee: 1,109.1 km
Apogee: 33,054.1 km
Inclination: 46.3 °
Period: 595.7 minutes
Semi major axis: 23452 km
RCS: 0.8237 m2 (medium)
Launch date: November 12, 1997
Source: Commonwealth of Independent States (former USSR) (CIS)

Note: This is a ROCKET BODY
Your satellite tracking list
Your tracking list is empty





NASA's NSSDC Master Catalog

Two Line Element Set (TLE):
1 25053U 97070E   15202.70719911 -.00000198  00000-0  00000+0 0  9991
2 25053 046.3435 321.5802 6810550 335.2517 003.5081 02.41722244155572

Source of the keplerian elements: AFSPC

N2YO: 332